User: anonymous   Login
Location: Newark
(45.2500°N, 7.5833°E)
Time: 00:30:07
(UTC+00:00)
Language:

Tiros 1 - Orbit

View from above orbital plane
View from above orbital plane
View from above satellite
View from above satellite

Ground track
Ground track

The orbit data is extracted from the following two-line orbital elements,

1    29U 60002B   20027.14523460 -.00000136 +00000-0 +10792-4 0  9999
2    29 048.3789 260.2079 0024289 342.7883 017.2203 14.74338530197547
Epoch (UTC): 27 January 2020 03:29:08
Eccentricity: 0.0024289
inclination: 48.3789°
perigee height: 630 km
apogee height: 664 km
right ascension of ascending node: 260.2079°
argument of perigee: 342.7883°
revolutions per day: 14.74338530
mean anomaly at epoch: 17.2203°
orbit number at epoch: 19754

The dashed part of the orbit path shows where the satellite is in the earth's shadow,  

DLR